User: anonymous   Login
Location: Unspecified
(0.0000°N, 0.0000°E)
Time: 23:59:11
(UTC+00:00)
Language:

STARLINK-31846 - Orbit

View from above orbital plane
View from above orbital plane
View from above satellite
View from above satellite

Ground track
Ground track

The orbit is defined by the following mean orbital elements,

1 60126U          26145.41388907 +.00000000 +00000-0 +17184-4 0 00001
2 60126  53.1605  30.3124 0001243  83.5610 276.5532 15.30189801    09
Epoch (UTC): 25 May 2026 09:56:00
Eccentricity: 0.0001243
inclination: 53.1605°
perigee height: 474 km
apogee height: 476 km
right ascension of ascending node: 30.3124°
argument of perigee: 83.5610°
revolutions per day: 15.30189801
mean anomaly at epoch: 276.5532°

The dashed part of the orbit path shows where the satellite is in the earth's shadow,  

DLR